Location: Carson
(33.8314°N, 118.2820°W)
Time: 13:07:24
(UTC+00:00)

Delta 2 Rocket - Pass Details

Date: 23 November 2020
Orbit: 415 x 805 km, 35.6° (Epoch: 22 January)

Event Time Altitude Azimuth Distance (km) Brightness Sun altitude
Exits shadow 12:18:40 52° 61° (ENE) 784 4.2 -27.7°
Drops below altitude 10° 12:22:06 10° 84° (E) 1,907 7.0 -27.0°
Sets 12:24:16 0° 87° (E) 2,739 8.1 -26.5°
